Time,TemperatureF,DewpointF,PressureIn,WindDirection,WindDirectionDegrees,WindSpeedMPH,WindSpeedGustMPH,Humidity,HourlyPrecipIn,Conditions,Clouds,dailyrainin,SoftwareType,DateUTC
2014-01-23 00:54:00,49.1,35.8,30.12,WNW,295,0.0,2.0,60,0.00,,CLR,0.00,VWS V14.00,2014-01-23 05:54:00,
2014-01-23 01:54:00,48.2,35.0,30.15,NW,304,0.0,3.0,60,0.00,,CLR,0.00,VWS V14.00,2014-01-23 06:54:00,
2014-01-23 02:54:00,46.9,35.4,30.15,WNW,290,2.0,5.0,64,0.00,,FEW250,0.00,VWS V14.00,2014-01-23 07:54:00,
2014-01-23 03:54:00,45.4,33.6,30.15,WNW,288,1.0,5.0,63,0.00,,CLR,0.00,VWS V14.00,2014-01-23 08:54:00,
2014-01-23 04:54:00,44.3,32.9,30.16,WNW,286,0.0,5.0,64,0.00,,CLR,0.00,VWS V14.00,2014-01-23 09:54:00,
2014-01-23 05:54:00,43.4,32.0,30.17,WNW,290,0.0,5.0,64,0.00,,CLR,0.00,VWS V14.00,2014-01-23 10:54:00,
2014-01-23 06:54:00,43.0,32.8,30.19,WNW,302,3.0,5.0,67,0.00,,FEW130,0.00,VWS V14.00,2014-01-23 11:54:00,
2014-01-23 07:54:00,45.6,33.8,30.21,WNW,303,1.0,6.0,63,0.00,,FEW130,0.00,VWS V14.00,2014-01-23 12:54:00,
2014-01-23 08:54:00,51.3,34.3,30.23,WNW,295,2.0,7.0,52,0.00,,SCT250,0.00,VWS V14.00,2014-01-23 13:54:00,
2014-01-23 09:54:00,57.5,44.2,30.24,WNW,290,0.0,9.0,61,0.00,,FEW030,0.00,VWS V14.00,2014-01-23 14:54:00,
2014-01-23 10:54:00,62.9,49.7,30.24,NW,313,0.0,11.0,62,0.00,,SCT250,0.00,VWS V14.00,2014-01-23 15:54:00,
2014-01-23 11:54:00,66.6,52.3,30.22,North,360,0.0,11.0,60,0.00,,SCT250,0.00,VWS V14.00,2014-01-23 16:54:00,
2014-01-23 12:54:00,67.1,54.5,30.19,NE,40,7.0,14.0,64,0.00,,SCT250,0.00,VWS V14.00,2014-01-23 17:54:00,
2014-01-23 13:54:00,68.0,55.8,30.18,North,355,1.0,12.0,65,0.00,,SCT250,0.00,VWS V14.00,2014-01-23 18:54:00,
2014-01-23 14:54:00,69.1,55.1,30.17,NE,49,2.0,13.0,61,0.00,,SCT250,0.00,VWS V14.00,2014-01-23 19:54:00,
2014-01-23 15:54:00,67.9,56.1,30.18,NE,39,3.0,13.0,66,0.00,,SCT032,0.00,VWS V14.00,2014-01-23 20:54:00,
2014-01-23 16:54:00,66.3,55.4,30.20,North,11,7.0,13.0,68,0.00,,SCT032,0.00,VWS V14.00,2014-01-23 21:54:00,
2014-01-23 17:54:00,63.9,55.1,30.21,NNE,25,0.0,11.0,73,0.00,,FEW032,0.00,VWS V14.00,2014-01-23 22:54:00,
2014-01-23 18:54:00,61.8,53.8,30.22,NNW,339,1.0,8.0,75,0.00,,FEW035,0.00,VWS V14.00,2014-01-23 23:54:00,
2014-01-23 19:54:00,59.9,52.7,30.24,NNW,327,0.0,8.0,77,0.00,,FEW035,0.00,VWS V14.00,2014-01-24 00:54:00,
2014-01-23 20:54:00,58.9,52.1,30.25,North,360,5.0,7.0,78,0.00,,FEW039,0.00,VWS V14.00,2014-01-24 01:54:00,
2014-01-23 21:54:00,58.5,52.0,30.26,North,351,0.0,6.0,79,0.00,,FEW035,0.00,VWS V14.00,2014-01-24 02:54:00,
2014-01-23 22:54:00,58.1,52.3,30.25,NNW,345,0.0,9.0,81,0.00,,SCT040,0.00,VWS V14.00,2014-01-24 03:54:00,
2014-01-23 23:55:00,57.9,52.5,30.25,North,5,3.0,7.0,82,0.00,,SCT042,0.00,VWS V14.00,2014-01-24 04:55:00,